Regional Weather Roundup
Issued by NWS

Home | Current Version | Previous Version | Graphics & Text | Print | Product List | Glossary On
Versions: 1 2 3 4 5 6 7 8 9 10 11 12 13 14 15 16 17 18 19 20 21 22 23 24 25 26 27 28 29 30 31 32 33 34 35 36 37 38 39 40 41 42 43 44 45 46 47 48 49 50
000
ASUS43 KLOT 310400
RWRIL

ILLINOIS REGIONAL WEATHER ROUNDUP
NATIONAL WEATHER SERVICE CHICAGO/ROMEOVILLE IL
1100 PM CDT SAT AUG 30 2014

NOTE: "FAIR" INDICATES FEW OR NO CLOUDS BELOW 12,000 FEET WITH NO
SIGNIFICANT WEATHER AND/OR OBSTRUCTIONS TO VISIBILITY.

* THESE STATIONS ARE NOT UNDER NWS QUALITY CONTROL. THEY ALSO MAY NOT
  REPORT WEATHER SUCH AS PRECIPITATION OR FOG.

ILZ001-002-007-009-015-016-024-310500-
NORTHWEST ILLINOIS

CITY           SKY/WX    TMP DP  RH WIND       PRES   REMARKS
MOLINE         CLEAR     67  65  93 S3        29.91R
STERLING*      CLEAR     64  63  94 S5        29.92R
$$

ILZ003-004-008-010-011-017-018-310500-
NORTH CENTRAL ILLINOIS

CITY           SKY/WX    TMP DP  RH WIND       PRES   REMARKS
ROCKFORD       PTCLDY    68  64  87 S5        29.92R
DE KALB*       CLEAR     65  63  94 CALM      29.92S
$$

ILZ005-006-012>014-019>023-310500-
NORTHEAST ILLINOIS

CITY           SKY/WX    TMP DP  RH WIND       PRES   REMARKS
CHICAGO-OHARE  PTCLDY    73  64  73 W6        29.90S
CHICAGO-MIDWAY MOCLDY    76  71  85 S9        29.91R
AURORA         PTCLDY    68  65  90 NW3       29.92S
WAUKEGAN       CLEAR     72  65  78 VRB3      29.89S
DUPAGE AIRPORT PTCLDY    70  66  87 CALM      29.91S
WHEELING       CLEAR     75  65  70 W3        29.91S
NORTHERLY ISL    N/A     76  66  71 S5          N/A
$$

LMZ740>746-310500-
SOUTHERN LAKE MICHIGAN

STATION/POSITION SKY/WX   TEMP    WIND        PRES    VSBY  WAVE
                          AIR SEA DIR/SP/G                  HT/PER
                          (F)     (DEG/KT/KT) (MB)    (MI)  (FT/S)
SOUTHERN BUOY              71 69  250/  6/  8 1011.5R         2/ 4
WAUKEGAN HARBOR            74     250/  6/  8   N/A
HARRISON CRIB              78     240/ 10/ 12   N/A
BURNHAM HARBOR             76     190/  5/  9   N/A
CALUMET HARBOR             76     200/  5/  7 1011.5S
MICHIGAN CITY              72     170/ 12/ 15   N/A
MICHIGAN CITY 6N           72 72  200/ 10/ 12   N/A           1/ 3
ST. JOSEPH                 72 71  220/  8/ 10   N/A           2/ 4
$$

ILZ025>027-034>036-040-047-049-050-058-095>099-310500-
WEST-CENTRAL ILLINOIS

CITY           SKY/WX    TMP DP  RH WIND       PRES   REMARKS
QUINCY         PTCLDY    74  72  93 CALM      29.92S
MACOMB*        PTCLDY    68  67  98 CALM      29.94R
$$

ILZ028>032-037-038-041>044-048-051>054-059>061-310500-
CENTRAL ILLINOIS

CITY           SKY/WX    TMP DP  RH WIND       PRES   REMARKS
DECATUR        CLOUDY    75  72  90 S7        29.95S
PEORIA         MOCLDY    76  70  82 S3        29.92R
SPRINGFIELD    MOCLDY    76  71  85 S8        29.93R
TAYLORVILLE    NOT AVBL
$$

ILZ033-039-045-046-055>057-062-063-310500-
EAST-CENTRAL ILLINOIS

CITY           SKY/WX    TMP DP  RH WIND       PRES   REMARKS
CHAMPAIGN      CLOUDY    73  71  93 S9        29.97R
MATTOON        CLOUDY    74  71  91 S8        29.97R
$$

ILZ079-100>102-310500-
SOUTHWEST ILLINOIS

CITY           SKY/WX    TMP DP  RH WIND       PRES   REMARKS
BELLEVILLE     MOCLDY    74  73  94 VRB5      29.95R
CAHOKIA*       MOCLDY    75  71  87 S5        29.94S
$$

ILZ064>066-069>071-074>076-080>082-084>086-088>090-092>094-310500-
SOUTH-CENTRAL ILLINOIS

CITY           SKY/WX    TMP DP  RH WIND       PRES   REMARKS
CARBONDALE     CLOUDY    73  70  90 S9        29.99S
MT. VERNON     CLOUDY    73  66  78 S8        30.00S
$$

ILZ067-068-072-073-078-083-087-091-310500-
SOUTHEAST ILLINOIS

CITY           SKY/WX    TMP DP  RH WIND       PRES   REMARKS
LAWRENCEVILLE  CLOUDY    71  70  96 S10       30.01R
ROBINSON*      CLOUDY    72  71  94 S3        30.02R
$$

ABBREVIATIONS USED IN REMARKS
   TC - TEMPERATURE IN CELSIUS
  WCI - WIND CHILL INDEX
   HX - HEAT INDEX
  VSB - VISIBILITY
$$



USA.gov is the U.S. government's official web portal to all federal, state and local government web resources and services.